This is the latest recevied weather packets stored in our database for station/object PY2UEP-1. If no packets are shown the sender has not sent any weather packets the latest 10 day(s).
| Time | Temp. | Humidity | Pressure | Rain* | Wind** | Luminosity | Snow |
|---|---|---|---|---|---|---|---|
| 1787508963 | 26.67° C | 32% | 1018.8 hPa | 0 mm | - | - | - |
| 1787508663 | 26.67° C | 32% | 1018.9 hPa | 0 mm | - | - | - |
| 1787508363 | 26.67° C | 30% | 1019 hPa | 0 mm | - | - | - |
| 1787508063 | 26.11° C | 31% | 1019 hPa | 0 mm | - | - | - |
| 1787507763 | 26.67° C | 32% | 1019 hPa | 0 mm | - | - | - |
| 1787507463 | 26.67° C | 33% | 1019 hPa | 0 mm | - | - | - |
| 1787507163 | 26.67° C | 33% | 1019.1 hPa | 0 mm | - | - | - |
| 1787506863 | 26.11° C | 34% | 1019.1 hPa | 0 mm | - | - | - |
| 1787506563 | 25.56° C | 34% | 1019.3 hPa | 0 mm | - | - | - |
| 1787506263 | 26.11° C | 34% | 1019.5 hPa | 0 mm | - | - | - |
| 1787505963 | 26.11° C | 34% | 1019.6 hPa | 0 mm | - | - | - |
| 1787505663 | 26.11° C | 35% | 1019.6 hPa | 0 mm | - | - | - |
| 1787505363 | 25.56° C | 34% | 1019.7 hPa | 0 mm | - | - | - |
| 1787505063 | 26.11° C | 33% | 1019.7 hPa | 0 mm | - | - | - |
| 1787504763 | 26.11° C | 33% | 1019.9 hPa | 0 mm | - | - | - |
| 1787504463 | 26.11° C | 33% | 1020.1 hPa | 0 mm | - | - | - |
| 1787504163 | 25.56° C | 33% | 1020.1 hPa | 0 mm | - | - | - |
| 1787503863 | 25.56° C | 36% | 1020.2 hPa | 0 mm | - | - | - |
| 1787503563 | 25° C | 38% | 1020.2 hPa | 0 mm | - | - | - |
| 1787503263 | 25.56° C | 37% | 1020.2 hPa | 0 mm | - | - | - |
| 1787502963 | 25° C | 37% | 1020.4 hPa | 0 mm | - | - | - |
| 1787502663 | 25° C | 38% | 1020.4 hPa | 0 mm | - | - | - |
| 1787502363 | 25° C | 37% | 1020.4 hPa | 0 mm | - | - | - |
| 1787502063 | 25° C | 39% | 1020.7 hPa | 0 mm | - | - | - |
| 1787501763 | 24.44° C | 40% | 1020.7 hPa | 0 mm | - | - | - |
* Rain since midnight (hover to see other rain measurements)
** Current wind speed in m/s (hover to see current wind gust speed)